Location: Geroldsau
(48.7259°N, 8.2466°E)
Time: 15:47:31
(UTC+00:00)

ERBS - Pass Details

Date: 20 June 2021
Orbit: 397 x 416 km, 57.0° (Epoch: 30 July)

Event Time Altitude Azimuth Distance (km) Brightness Sun altitude
Exits shadow 02:23:20 11° 208° (SSW) 1,403 4.3 -8.0°
Maximum altitude 02:26:17 42° 137° (SE) 586 2.9 -7.7°
Drops below altitude 10° 02:29:23 10° 65° (ENE) 1,456 6.2 -7.3°
Sets 02:31:31 0° 58° (ENE) 2,322 7.8 -7.1°
